Year,Month,Day,Hour,Minute,Value (Times are PST for temperature in C)
2015,11,14,00,00,9.00
2015,11,14,00,01,9.00
2015,11,14,00,02,9.00
2015,11,14,00,03,9.10
2015,11,14,00,04,9.10
2015,11,14,00,05,9.10
2015,11,14,00,06,9.10
2015,11,14,00,07,9.10
2015,11,14,00,08,9.10
2015,11,14,00,09,9.20
2015,11,14,00,10,9.20
2015,11,14,00,11,9.20
2015,11,14,00,12,9.20
2015,11,14,00,13,9.20
2015,11,14,00,14,9.20
2015,11,14,00,15,9.20
2015,11,14,00,16,9.20
2015,11,14,00,17,9.20
2015,11,14,00,18,9.10
2015,11,14,00,19,9.10
2015,11,14,00,20,9.10
2015,11,14,00,21,9.10
2015,11,14,00,22,9.10
2015,11,14,00,23,9.10
2015,11,14,00,24,9.10
2015,11,14,00,25,9.10
2015,11,14,00,26,9.00
2015,11,14,00,27,9.00
2015,11,14,00,28,9.00
2015,11,14,00,29,9.00
2015,11,14,00,30,9.00
2015,11,14,00,31,9.00
2015,11,14,00,32,9.00
2015,11,14,00,33,9.00
2015,11,14,00,34,8.90
2015,11,14,00,35,8.90
2015,11,14,00,36,8.90
2015,11,14,00,37,8.90
2015,11,14,00,38,8.90
2015,11,14,00,39,8.90
2015,11,14,00,40,8.90
2015,11,14,00,41,8.90
2015,11,14,00,42,8.90
2015,11,14,00,43,8.90
2015,11,14,00,44,8.90
2015,11,14,00,45,8.90
2015,11,14,00,46,8.90
2015,11,14,00,47,8.90
2015,11,14,00,48,8.90
2015,11,14,00,49,8.90
2015,11,14,00,50,8.90
2015,11,14,00,51,8.90
2015,11,14,00,52,8.90
2015,11,14,00,53,8.90
2015,11,14,00,54,8.80
2015,11,14,00,55,8.80
2015,11,14,00,56,8.80
2015,11,14,00,57,8.80
2015,11,14,00,58,8.80
2015,11,14,00,59,8.80
2015,11,14,01,00,8.80
2015,11,14,01,01,8.80
2015,11,14,01,02,8.80
2015,11,14,01,03,8.80
2015,11,14,01,04,8.80
2015,11,14,01,05,8.80
2015,11,14,01,06,8.90
2015,11,14,01,07,8.90
2015,11,14,01,08,8.90
2015,11,14,01,09,8.90
2015,11,14,01,10,8.90
2015,11,14,01,11,8.90
2015,11,14,01,12,8.90
2015,11,14,01,13,8.90
2015,11,14,01,14,8.90
2015,11,14,01,15,8.90
2015,11,14,01,16,8.90
2015,11,14,01,17,8.90
2015,11,14,01,18,8.90
2015,11,14,01,19,8.90
2015,11,14,01,20,8.90
2015,11,14,01,21,8.90
2015,11,14,01,22,8.90
2015,11,14,01,23,8.90
2015,11,14,01,24,8.90
2015,11,14,01,25,8.90
2015,11,14,01,26,8.90
2015,11,14,01,27,8.90
2015,11,14,01,28,8.90
2015,11,14,01,29,8.90
2015,11,14,01,30,8.90
2015,11,14,01,31,8.80
2015,11,14,01,32,8.80
2015,11,14,01,33,8.80
2015,11,14,01,34,8.80
2015,11,14,01,35,8.80
2015,11,14,01,36,8.80
2015,11,14,01,37,8.80
2015,11,14,01,38,8.80
2015,11,14,01,39,8.80
2015,11,14,01,40,8.90
2015,11,14,01,41,8.90
2015,11,14,01,42,8.80
2015,11,14,01,43,8.80
2015,11,14,01,44,8.80
2015,11,14,01,45,8.80
2015,11,14,01,46,8.80
2015,11,14,01,47,8.80
2015,11,14,01,48,8.80
2015,11,14,01,49,8.80
2015,11,14,01,50,8.80
2015,11,14,01,51,8.80
2015,11,14,01,52,8.80
2015,11,14,01,53,8.80
2015,11,14,01,54,8.80
2015,11,14,01,55,8.80
2015,11,14,01,56,8.80
2015,11,14,01,57,8.80
2015,11,14,01,58,8.80
2015,11,14,01,59,8.80
2015,11,14,02,00,8.80
2015,11,14,02,01,8.80
2015,11,14,02,02,8.80
2015,11,14,02,03,8.80
2015,11,14,02,04,8.80
2015,11,14,02,05,8.80
2015,11,14,02,06,8.80
2015,11,14,02,07,8.80
2015,11,14,02,08,8.80
2015,11,14,02,09,8.80
2015,11,14,02,10,8.80
2015,11,14,02,11,8.80
2015,11,14,02,12,8.80
2015,11,14,02,13,8.80
2015,11,14,02,14,8.80
2015,11,14,02,15,8.80
2015,11,14,02,16,8.80
2015,11,14,02,17,8.80
2015,11,14,02,18,8.80
2015,11,14,02,19,8.80
2015,11,14,02,20,8.80
2015,11,14,02,21,8.80
2015,11,14,02,22,8.80
2015,11,14,02,23,8.80
2015,11,14,02,24,8.80
2015,11,14,02,25,8.80
2015,11,14,02,26,8.80
2015,11,14,02,27,8.80
2015,11,14,02,28,8.80
2015,11,14,02,29,8.80
2015,11,14,02,30,8.80
2015,11,14,02,31,8.80
2015,11,14,02,32,8.80
2015,11,14,02,33,8.80
2015,11,14,02,34,8.80
2015,11,14,02,35,8.80
2015,11,14,02,36,8.80
2015,11,14,02,37,8.80
2015,11,14,02,38,8.80
2015,11,14,02,39,8.80
2015,11,14,02,40,8.80
2015,11,14,02,41,8.80
2015,11,14,02,42,8.80
2015,11,14,02,43,8.80
2015,11,14,02,44,8.80
2015,11,14,02,45,8.80
2015,11,14,02,46,8.80
2015,11,14,02,47,8.80
2015,11,14,02,48,8.80
2015,11,14,02,49,8.80
2015,11,14,02,50,8.80
2015,11,14,02,51,8.80
2015,11,14,02,52,8.80
2015,11,14,02,53,8.80
2015,11,14,02,54,8.80
2015,11,14,02,55,8.80
2015,11,14,02,56,8.80
2015,11,14,02,57,8.80
2015,11,14,02,58,8.80
2015,11,14,02,59,8.80
2015,11,14,03,00,8.80
2015,11,14,03,01,8.80
2015,11,14,03,02,8.80
2015,11,14,03,03,8.80
2015,11,14,03,04,8.80
2015,11,14,03,05,8.80
2015,11,14,03,06,8.80
2015,11,14,03,07,8.80
2015,11,14,03,08,8.80
2015,11,14,03,09,8.80
2015,11,14,03,10,8.80
2015,11,14,03,11,8.80
2015,11,14,03,12,8.80
2015,11,14,03,13,8.80
2015,11,14,03,14,8.80
2015,11,14,03,15,8.80
2015,11,14,03,16,8.80
2015,11,14,03,17,8.80
2015,11,14,03,18,8.80
2015,11,14,03,19,8.80
2015,11,14,03,20,8.80
2015,11,14,03,21,8.80
2015,11,14,08,43,8.10
2015,11,14,08,44,8.10
2015,11,14,08,45,8.10
2015,11,14,08,46,8.10
2015,11,14,08,47,8.10
2015,11,14,08,48,8.10
2015,11,14,08,49,8.10
2015,11,14,08,50,8.20
2015,11,14,08,51,8.10
2015,11,14,08,52,8.20
2015,11,14,08,53,8.20
2015,11,14,08,54,8.20
2015,11,14,08,55,8.20
2015,11,14,08,56,8.20
2015,11,14,08,57,8.10
2015,11,14,08,58,8.10
2015,11,14,08,59,8.20
2015,11,14,09,00,8.20
2015,11,14,09,01,8.20
2015,11,14,09,02,8.20
2015,11,14,09,03,8.20
2015,11,14,09,04,8.20
2015,11,14,09,05,8.20
2015,11,14,09,06,8.20
2015,11,14,09,07,8.20
2015,11,14,09,08,8.20
2015,11,14,09,09,8.20
2015,11,14,09,10,8.20
2015,11,14,09,11,8.20
2015,11,14,09,12,8.20
2015,11,14,09,13,8.20
2015,11,14,09,14,8.20
2015,11,14,09,15,8.20
2015,11,14,09,16,8.20
2015,11,14,09,17,8.20
2015,11,14,09,18,8.20
2015,11,14,09,19,8.20
2015,11,14,09,20,8.20
2015,11,14,09,21,8.20
2015,11,14,09,22,8.20
2015,11,14,09,23,8.20
2015,11,14,09,24,8.20
2015,11,14,09,25,8.30
2015,11,14,09,26,8.20
2015,11,14,09,27,8.20
2015,11,14,09,28,8.30
2015,11,14,09,29,8.30
2015,11,14,09,30,8.30
2015,11,14,09,31,8.30
2015,11,14,09,32,8.30
2015,11,14,09,33,8.30
2015,11,14,09,34,8.30
2015,11,14,09,35,8.30
2015,11,14,09,36,8.30
2015,11,14,09,37,8.30
2015,11,14,09,38,8.30
2015,11,14,09,39,8.30
2015,11,14,09,40,8.30
2015,11,14,09,41,8.30
2015,11,14,09,42,8.30
2015,11,14,09,43,8.40
2015,11,14,09,44,8.40
2015,11,14,09,45,8.40
2015,11,14,09,46,8.40
2015,11,14,09,47,8.40
2015,11,14,09,48,8.40
2015,11,14,09,49,8.40
2015,11,14,09,50,8.50
2015,11,14,09,51,8.50
2015,11,14,09,52,8.50
2015,11,14,09,53,8.50
2015,11,14,09,54,8.50
2015,11,14,09,55,8.50
2015,11,14,09,56,8.50
2015,11,14,09,57,8.60
2015,11,14,09,58,8.60
2015,11,14,09,59,8.60
2015,11,14,10,00,8.60
2015,11,14,10,01,8.60
2015,11,14,10,02,8.60
2015,11,14,10,03,8.60
2015,11,14,10,04,8.60
2015,11,14,10,05,8.70
2015,11,14,10,06,8.70
2015,11,14,10,07,8.70
2015,11,14,10,08,8.70
2015,11,14,10,09,8.70
2015,11,14,10,10,8.70
2015,11,14,10,11,8.80
2015,11,14,10,12,8.80
2015,11,14,10,13,8.80
2015,11,14,10,14,8.80
2015,11,14,10,15,8.70
2015,11,14,10,16,8.70
2015,11,14,10,17,8.70
2015,11,14,10,18,8.70
2015,11,14,10,19,8.70
2015,11,14,10,20,8.70
2015,11,14,10,21,8.70
2015,11,14,10,22,8.70
2015,11,14,10,23,8.80
2015,11,14,10,24,8.80
2015,11,14,10,25,8.80
2015,11,14,10,26,8.80
2015,11,14,10,27,8.80
2015,11,14,10,28,8.80
2015,11,14,10,29,8.80
2015,11,14,10,30,8.80
2015,11,14,10,31,8.80
2015,11,14,10,32,8.90
2015,11,14,10,33,8.90
2015,11,14,10,34,8.90
2015,11,14,10,35,8.90
2015,11,14,10,36,8.90
2015,11,14,10,37,9.00
2015,11,14,10,38,9.00
2015,11,14,10,39,9.00
2015,11,14,10,40,9.10
2015,11,14,10,41,9.10
2015,11,14,10,42,9.10
2015,11,14,10,43,9.10
2015,11,14,10,44,9.10
2015,11,14,10,45,9.10
2015,11,14,10,46,9.20
2015,11,14,10,47,9.20
2015,11,14,10,48,9.20
2015,11,14,10,49,9.20
2015,11,14,10,50,9.20
2015,11,14,10,51,9.20
2015,11,14,10,52,9.10
2015,11,14,10,53,9.10
2015,11,14,10,54,9.10
2015,11,14,10,55,9.00
2015,11,14,10,56,9.00
2015,11,14,10,57,9.00
2015,11,14,10,58,8.90
2015,11,14,10,59,8.90
2015,11,14,11,00,8.90
2015,11,14,11,01,8.90
2015,11,14,11,02,8.90
2015,11,14,11,03,8.90
2015,11,14,11,04,8.90
2015,11,14,11,05,8.90
2015,11,14,11,06,8.90
2015,11,14,11,07,8.90
2015,11,14,11,08,8.90
2015,11,14,11,09,8.90
2015,11,14,11,10,8.90
2015,11,14,11,11,8.90
2015,11,14,11,12,8.90
2015,11,14,11,13,8.90
2015,11,14,11,14,8.90
2015,11,14,11,15,9.00
2015,11,14,11,16,9.00
2015,11,14,11,17,8.90
2015,11,14,11,18,9.00
2015,11,14,11,19,9.00
2015,11,14,11,20,9.00
2015,11,14,11,21,9.00
2015,11,14,11,22,9.00
2015,11,14,11,23,9.00
2015,11,14,11,24,9.00
2015,11,14,11,25,9.00
2015,11,14,11,26,9.00
2015,11,14,11,27,9.00
2015,11,14,11,28,9.00
2015,11,14,11,29,9.00
2015,11,14,11,30,9.00
2015,11,14,11,31,9.00
2015,11,14,11,32,9.00
2015,11,14,11,33,9.00
2015,11,14,11,34,9.00
2015,11,14,11,35,9.00
2015,11,14,11,36,9.10
2015,11,14,11,37,9.10
2015,11,14,11,38,9.10
2015,11,14,11,39,9.10
2015,11,14,11,40,9.10
2015,11,14,11,41,9.10
2015,11,14,11,42,9.00
2015,11,14,11,43,9.00
2015,11,14,11,44,9.00
2015,11,14,11,45,9.00
2015,11,14,11,46,9.00
2015,11,14,11,47,9.00
2015,11,14,11,48,9.00
2015,11,14,11,49,9.00
2015,11,14,11,50,9.00
2015,11,14,11,51,9.00
2015,11,14,11,52,9.00
2015,11,14,11,53,9.00
2015,11,14,11,54,9.00
2015,11,14,11,55,8.90
2015,11,14,11,56,8.90
2015,11,14,11,57,8.90
2015,11,14,11,58,8.90
2015,11,14,11,59,9.00
2015,11,14,12,00,9.00
2015,11,14,12,01,9.00
2015,11,14,12,02,9.00
2015,11,14,12,03,9.00
2015,11,14,12,04,9.00
2015,11,14,12,05,9.00
2015,11,14,12,06,9.00
2015,11,14,12,07,9.00
2015,11,14,12,08,9.00
2015,11,14,12,09,9.00
2015,11,14,12,10,9.00
2015,11,14,12,11,9.00
2015,11,14,12,12,9.00
2015,11,14,12,13,9.00
2015,11,14,12,14,9.00
2015,11,14,12,15,9.00
2015,11,14,12,16,9.00
2015,11,14,12,17,9.00
2015,11,14,12,18,9.00
2015,11,14,12,19,9.00
2015,11,14,12,20,9.10
2015,11,14,12,21,9.00
2015,11,14,12,22,9.10
2015,11,14,12,23,9.10
2015,11,14,12,24,9.10
2015,11,14,12,25,9.10
2015,11,14,12,26,9.10
2015,11,14,12,27,9.10
2015,11,14,12,28,9.10
2015,11,14,12,29,9.10
2015,11,14,12,30,9.10
2015,11,14,12,31,9.10
2015,11,14,12,32,9.10
2015,11,14,12,33,9.10
2015,11,14,12,34,9.10
2015,11,14,12,35,9.20
2015,11,14,12,36,9.20
2015,11,14,12,37,9.20
2015,11,14,12,38,9.20
2015,11,14,12,39,9.20
2015,11,14,12,40,9.20
2015,11,14,12,41,9.20
2015,11,14,12,42,9.20
2015,11,14,12,43,9.10
2015,11,14,12,44,9.10
2015,11,14,12,45,9.10
2015,11,14,12,46,9.10
2015,11,14,12,47,9.10
2015,11,14,12,48,9.10
2015,11,14,12,49,9.10
2015,11,14,12,50,9.10
2015,11,14,12,51,9.10
2015,11,14,12,52,9.10
2015,11,14,12,53,9.10
2015,11,14,12,54,9.10
2015,11,14,12,55,9.10
2015,11,14,12,56,9.10
2015,11,14,12,57,9.10
2015,11,14,12,58,9.10
2015,11,14,12,59,9.10
2015,11,14,13,00,9.10
2015,11,14,13,01,9.10
2015,11,14,13,02,9.10
2015,11,14,13,03,9.10
2015,11,14,13,04,9.10
2015,11,14,13,05,9.10
2015,11,14,13,06,9.10
2015,11,14,13,07,9.10
2015,11,14,13,08,9.10
2015,11,14,13,09,9.10
2015,11,14,13,10,9.10
2015,11,14,13,11,9.10
2015,11,14,13,12,9.10
2015,11,14,13,13,9.10
2015,11,14,13,14,9.10
2015,11,14,13,15,9.10
2015,11,14,13,16,9.10
2015,11,14,13,17,9.10
2015,11,14,13,18,9.10
2015,11,14,13,19,9.10
2015,11,14,13,20,9.10
2015,11,14,13,21,9.10
2015,11,14,13,22,9.10
2015,11,14,13,23,9.10
2015,11,14,13,24,9.10
2015,11,14,13,25,9.20
2015,11,14,13,26,9.20
2015,11,14,13,27,9.20
2015,11,14,13,28,9.20
2015,11,14,13,29,9.20
2015,11,14,13,30,9.20
2015,11,14,13,31,9.20
2015,11,14,13,32,9.20
2015,11,14,13,33,9.20
2015,11,14,13,34,9.20
2015,11,14,13,35,9.20
2015,11,14,13,36,9.10
2015,11,14,13,37,9.10
2015,11,14,13,38,9.10
2015,11,14,13,39,9.10
2015,11,14,13,40,9.10
2015,11,14,13,41,9.10
2015,11,14,13,42,9.10
2015,11,14,13,43,9.10
2015,11,14,13,44,9.10
2015,11,14,13,45,9.10
2015,11,14,13,46,9.10
2015,11,14,13,47,9.10
2015,11,14,13,48,9.10
2015,11,14,13,49,9.00
2015,11,14,13,50,9.10
2015,11,14,13,51,9.00
2015,11,14,13,52,9.00
2015,11,14,13,53,9.00
2015,11,14,13,54,9.00
2015,11,14,13,55,9.00
2015,11,14,13,56,9.00
2015,11,14,13,57,9.00
2015,11,14,13,58,9.00
2015,11,14,13,59,9.00
2015,11,14,14,00,9.00
2015,11,14,14,01,9.00
2015,11,14,14,02,9.00
2015,11,14,14,03,9.00
2015,11,14,14,04,9.00
2015,11,14,14,05,8.90
2015,11,14,14,06,8.90
2015,11,14,14,07,8.90
2015,11,14,14,08,8.90
2015,11,14,14,09,8.90
2015,11,14,14,10,8.90
2015,11,14,14,11,8.90
2015,11,14,14,12,8.90
2015,11,14,14,13,8.90
2015,11,14,14,14,8.90
2015,11,14,14,15,8.80
2015,11,14,14,16,8.80
2015,11,14,14,17,8.80
2015,11,14,14,18,8.80
2015,11,14,14,19,8.80
2015,11,14,14,20,8.80
2015,11,14,14,21,8.80
2015,11,14,14,22,8.80
2015,11,14,14,23,8.80
2015,11,14,14,24,8.70
2015,11,14,14,25,8.70
2015,11,14,14,26,8.70
2015,11,14,14,27,8.70
2015,11,14,14,28,8.70
2015,11,14,14,29,8.70
2015,11,14,14,30,8.70
2015,11,14,14,31,8.70
2015,11,14,14,32,8.70
2015,11,14,14,33,8.70
2015,11,14,14,34,8.70
2015,11,14,14,35,8.70
2015,11,14,14,36,8.70
2015,11,14,14,37,8.70
2015,11,14,14,38,8.70
2015,11,14,14,39,8.60
2015,11,14,14,40,8.60
2015,11,14,14,41,8.60
2015,11,14,14,42,8.60
2015,11,14,14,43,8.60
2015,11,14,14,44,8.60
2015,11,14,14,45,8.60
2015,11,14,14,46,8.60
2015,11,14,14,47,8.60
2015,11,14,14,48,8.60
2015,11,14,14,49,8.60
2015,11,14,14,50,8.60
2015,11,14,14,51,8.60
2015,11,14,14,52,8.60
2015,11,14,14,53,8.60
2015,11,14,14,54,8.60
2015,11,14,14,55,8.60
2015,11,14,14,56,8.60
2015,11,14,14,57,8.60
2015,11,14,14,58,8.60
2015,11,14,14,59,8.60
2015,11,14,15,00,8.60
2015,11,14,15,01,8.60
2015,11,14,15,02,8.60
2015,11,14,15,03,8.60
2015,11,14,15,04,8.60
2015,11,14,15,05,8.60
2015,11,14,15,06,8.50
2015,11,14,15,07,8.50
2015,11,14,15,08,8.50
2015,11,14,15,09,8.50
2015,11,14,15,10,8.50
2015,11,14,15,11,8.50
2015,11,14,15,12,8.50
2015,11,14,15,13,8.50
2015,11,14,15,14,8.40
2015,11,14,15,15,8.50
2015,11,14,15,16,8.40
2015,11,14,15,17,8.40
2015,11,14,15,18,8.40
2015,11,14,15,19,8.40
2015,11,14,15,20,8.40
2015,11,14,15,21,8.40
2015,11,14,15,22,8.40
2015,11,14,15,23,8.40
2015,11,14,15,24,8.40
2015,11,14,15,25,8.40
2015,11,14,15,26,8.40
2015,11,14,15,27,8.40
2015,11,14,15,28,8.40
2015,11,14,15,29,8.40
2015,11,14,15,30,8.40
2015,11,14,15,31,8.40
2015,11,14,15,32,8.40
2015,11,14,15,33,8.40
2015,11,14,15,34,8.40
2015,11,14,15,35,8.40
2015,11,14,15,36,8.40
2015,11,14,15,37,8.40
2015,11,14,15,38,8.40
2015,11,14,15,39,8.40
2015,11,14,15,40,8.40
2015,11,14,15,41,8.40
2015,11,14,15,42,8.40
2015,11,14,15,43,8.40
2015,11,14,15,44,8.40
2015,11,14,15,45,8.40
2015,11,14,15,46,8.40
2015,11,14,15,47,8.40
2015,11,14,15,48,8.40
2015,11,14,15,49,8.40
2015,11,14,15,50,8.40
2015,11,14,15,51,8.40
2015,11,14,15,52,8.40
2015,11,14,15,53,8.40
2015,11,14,15,54,8.40
2015,11,14,15,55,8.40
2015,11,14,15,56,8.40
2015,11,14,15,57,8.40
2015,11,14,15,58,8.40
2015,11,14,15,59,8.40
2015,11,14,16,00,8.40
2015,11,14,16,01,8.40
2015,11,14,16,02,8.40
2015,11,14,16,03,8.40
2015,11,14,16,04,8.40
2015,11,14,16,05,8.40
2015,11,14,16,06,8.40
2015,11,14,16,07,8.40
2015,11,14,16,08,8.40
2015,11,14,16,09,8.40
2015,11,14,16,10,8.40
2015,11,14,16,11,8.40
2015,11,14,16,12,8.40
2015,11,14,16,13,8.40
2015,11,14,16,14,8.40
2015,11,14,16,15,8.40
2015,11,14,16,16,8.40
2015,11,14,16,17,8.40
2015,11,14,16,18,8.40
2015,11,14,16,19,8.40
2015,11,14,16,20,8.40
2015,11,14,16,21,8.40
2015,11,14,16,22,8.40
2015,11,14,16,23,8.40
2015,11,14,16,24,8.40
2015,11,14,16,25,8.40
2015,11,14,16,26,8.40
2015,11,14,16,27,8.40
2015,11,14,16,28,8.40
2015,11,14,16,29,8.30
2015,11,14,16,30,8.30
2015,11,14,16,31,8.30
2015,11,14,16,32,8.30
2015,11,14,16,33,8.30
2015,11,14,16,34,8.30
2015,11,14,16,35,8.30
2015,11,14,16,36,8.30
2015,11,14,16,37,8.30
2015,11,14,16,38,8.20
2015,11,14,16,39,8.20
2015,11,14,16,40,8.20
2015,11,14,16,41,8.20
2015,11,14,16,42,8.20
2015,11,14,16,43,8.20
2015,11,14,16,44,8.20
2015,11,14,16,45,8.20
2015,11,14,16,46,8.20
2015,11,14,16,47,8.20
2015,11,14,16,48,8.20
2015,11,14,16,49,8.10
2015,11,14,16,50,8.10
2015,11,14,16,51,8.10
2015,11,14,16,52,8.00
2015,11,14,16,53,8.00
2015,11,14,16,54,8.00
2015,11,14,16,55,7.90
2015,11,14,16,56,7.90
2015,11,14,16,57,7.90
2015,11,14,16,58,7.90
2015,11,14,16,59,7.90
2015,11,14,17,00,7.90
2015,11,14,17,01,7.90
2015,11,14,17,02,7.90
2015,11,14,17,03,7.90
2015,11,14,17,04,7.90
2015,11,14,17,05,7.90
2015,11,14,17,06,7.90
2015,11,14,17,07,7.90
2015,11,14,17,08,7.90
2015,11,14,17,09,7.90
2015,11,14,17,10,7.90
2015,11,14,17,11,7.90
2015,11,14,17,12,7.80
2015,11,14,17,13,7.80
2015,11,14,17,14,7.80
2015,11,14,17,15,7.80
2015,11,14,17,16,7.80
2015,11,14,17,17,7.80
2015,11,14,17,18,7.80
2015,11,14,17,19,7.80
2015,11,14,17,20,7.80
2015,11,14,17,21,7.80
2015,11,14,17,22,7.80
2015,11,14,17,23,7.80
2015,11,14,17,24,7.80
2015,11,14,17,25,7.80
2015,11,14,17,26,7.70
2015,11,14,17,27,7.80
2015,11,14,17,28,7.70
2015,11,14,17,29,7.80
2015,11,14,17,30,7.80
2015,11,14,17,31,7.80
2015,11,14,17,32,7.80
2015,11,14,17,33,7.80
2015,11,14,17,34,7.80
2015,11,14,17,35,7.80
2015,11,14,17,36,7.80
2015,11,14,17,37,7.80
2015,11,14,17,38,7.80
2015,11,14,17,39,7.80
2015,11,14,17,40,7.80
2015,11,14,17,41,7.80
2015,11,14,17,42,7.80
2015,11,14,17,43,7.80
2015,11,14,17,44,7.80
2015,11,14,17,45,7.80
2015,11,14,17,46,7.80
2015,11,14,17,47,7.80
2015,11,14,17,48,7.80
2015,11,14,17,49,7.80
2015,11,14,17,50,7.80
2015,11,14,17,51,7.80
2015,11,14,17,52,7.80
2015,11,14,17,53,7.80
2015,11,14,17,54,7.80
2015,11,14,17,55,7.80
2015,11,14,17,56,7.80
2015,11,14,17,57,7.80
2015,11,14,17,58,7.90
2015,11,14,17,59,7.90
2015,11,14,18,00,7.90
2015,11,14,18,01,7.90
2015,11,14,18,02,7.90
2015,11,14,18,03,7.90
2015,11,14,18,04,7.90
2015,11,14,18,05,7.90
2015,11,14,18,06,7.90
2015,11,14,18,07,7.80
2015,11,14,18,08,7.80
2015,11,14,18,09,7.80
2015,11,14,18,10,7.80
2015,11,14,18,11,7.80
2015,11,14,18,12,7.80
2015,11,14,18,13,7.80
2015,11,14,18,14,7.80
2015,11,14,18,15,7.80
2015,11,14,18,16,7.80
2015,11,14,18,17,7.80
2015,11,14,18,18,7.80
2015,11,14,18,19,7.70
2015,11,14,18,20,7.70
2015,11,14,18,21,7.70
2015,11,14,18,22,7.70
2015,11,14,18,23,7.70
2015,11,14,18,24,7.70
2015,11,14,18,25,7.70
2015,11,14,18,26,7.70
2015,11,14,18,27,7.70
2015,11,14,18,28,7.80
2015,11,14,18,29,7.80
2015,11,14,18,30,7.80
2015,11,14,18,31,7.80
2015,11,14,18,32,7.80
2015,11,14,18,33,7.80
2015,11,14,18,34,7.80
2015,11,14,18,35,7.80
2015,11,14,18,36,7.80
2015,11,14,18,37,7.80
2015,11,14,18,38,7.80
2015,11,14,18,39,7.80
2015,11,14,18,40,7.80
2015,11,14,18,41,7.80
2015,11,14,18,42,7.80
2015,11,14,18,43,7.80
2015,11,14,18,44,7.80
2015,11,14,18,45,7.80
2015,11,14,18,46,7.80
2015,11,14,18,47,7.80
2015,11,14,18,48,7.80
2015,11,14,18,49,7.80
2015,11,14,18,50,7.80
2015,11,14,18,51,7.80
2015,11,14,18,52,7.80
2015,11,14,18,53,7.80
2015,11,14,18,54,7.80
2015,11,14,18,55,7.80
2015,11,14,18,56,7.80
2015,11,14,18,57,7.80
2015,11,14,18,58,7.80
2015,11,14,18,59,7.80
2015,11,14,19,00,7.80
2015,11,14,19,01,7.70
2015,11,14,19,02,7.70
2015,11,14,19,03,7.70
2015,11,14,19,04,7.70
2015,11,14,19,05,7.70
2015,11,14,19,06,7.70
2015,11,14,19,07,7.70
2015,11,14,19,08,7.70
2015,11,14,19,09,7.70
2015,11,14,19,10,7.70
2015,11,14,19,11,7.70
2015,11,14,19,12,7.70
2015,11,14,19,13,7.70
2015,11,14,19,14,7.70
2015,11,14,19,15,7.70
2015,11,14,19,16,7.70
2015,11,14,19,17,7.70
2015,11,14,19,18,7.70
2015,11,14,19,19,7.70
2015,11,14,19,20,7.70
2015,11,14,19,21,7.70
2015,11,14,19,22,7.60
2015,11,14,19,23,7.60
2015,11,14,19,24,7.60
2015,11,14,19,25,7.50
2015,11,14,19,26,7.50
2015,11,14,19,27,7.50
2015,11,14,19,28,7.40
2015,11,14,19,29,7.40
2015,11,14,19,30,7.40
2015,11,14,19,31,7.30
2015,11,14,19,32,7.30
2015,11,14,19,33,7.30
2015,11,14,19,34,7.30
2015,11,14,19,35,7.30
2015,11,14,19,36,7.30
2015,11,14,19,37,7.30
2015,11,14,19,38,7.30
2015,11,14,19,39,7.30
2015,11,14,19,40,7.30
2015,11,14,19,41,7.30
2015,11,14,19,42,7.30
2015,11,14,19,43,7.20
2015,11,14,19,44,7.20
2015,11,14,19,45,7.20
2015,11,14,19,46,7.20
2015,11,14,19,47,7.20
2015,11,14,19,48,7.20
2015,11,14,19,49,7.20
2015,11,14,19,50,7.20
2015,11,14,19,51,7.30
2015,11,14,19,52,7.30
2015,11,14,19,53,7.30
2015,11,14,19,54,7.30
2015,11,14,19,55,7.30
2015,11,14,19,56,7.30
2015,11,14,19,57,7.30
2015,11,14,19,58,7.40
2015,11,14,19,59,7.40
2015,11,14,20,00,7.40
2015,11,14,20,01,7.40
2015,11,14,20,02,7.40
2015,11,14,20,03,7.40
2015,11,14,20,04,7.40
2015,11,14,20,05,7.30
2015,11,14,20,06,7.30
2015,11,14,20,07,7.30
2015,11,14,20,08,7.30
2015,11,14,20,09,7.30
2015,11,14,20,10,7.30
2015,11,14,20,11,7.30
2015,11,14,20,12,7.30
2015,11,14,20,13,7.30
2015,11,14,20,14,7.30
2015,11,14,20,15,7.30
2015,11,14,20,16,7.30
2015,11,14,20,17,7.30
2015,11,14,20,18,7.30
2015,11,14,20,19,7.30
2015,11,14,20,20,7.30
2015,11,14,20,21,7.30
2015,11,14,20,22,7.30
2015,11,14,20,23,7.30
2015,11,14,20,24,7.30
2015,11,14,20,25,7.30
2015,11,14,20,26,7.30
2015,11,14,20,27,7.30
2015,11,14,20,28,7.20
2015,11,14,20,29,7.20
2015,11,14,20,30,7.20
2015,11,14,20,31,7.10
2015,11,14,20,32,7.10
2015,11,14,20,33,7.10
2015,11,14,20,34,7.10
2015,11,14,20,35,7.10
2015,11,14,20,36,7.10
2015,11,14,20,37,7.00
2015,11,14,20,38,7.00
2015,11,14,20,39,7.00
2015,11,14,20,40,7.00
2015,11,14,20,41,7.00
2015,11,14,20,42,7.00
2015,11,14,20,43,7.00
2015,11,14,20,44,7.00
2015,11,14,20,45,7.00
2015,11,14,20,46,7.00
2015,11,14,20,47,7.00
2015,11,14,20,48,7.00
2015,11,14,20,49,7.00
2015,11,14,20,50,7.00
2015,11,14,20,51,7.00
2015,11,14,20,52,7.00
2015,11,14,20,53,7.00
2015,11,14,20,54,7.00
2015,11,14,20,55,7.00
2015,11,14,20,56,7.00
2015,11,14,20,57,7.00
2015,11,14,20,58,7.00
2015,11,14,20,59,7.00
2015,11,14,21,00,6.90
2015,11,14,21,01,6.90
2015,11,14,21,02,6.90
2015,11,14,21,03,6.80
2015,11,14,21,04,6.80
2015,11,14,21,05,6.80
2015,11,14,21,06,6.80
2015,11,14,21,07,6.80
2015,11,14,21,08,6.80
2015,11,14,21,09,6.80
2015,11,14,21,10,6.80
2015,11,14,21,11,6.80
2015,11,14,21,12,6.80
2015,11,14,21,13,6.80
2015,11,14,21,14,6.80
2015,11,14,21,15,6.80
2015,11,14,21,16,6.80
2015,11,14,21,17,6.80
2015,11,14,21,18,6.80
2015,11,14,21,19,6.80
2015,11,14,21,20,6.80
2015,11,14,21,21,6.80
2015,11,14,21,22,6.80
2015,11,14,21,23,6.80
2015,11,14,21,24,6.80
2015,11,14,21,25,6.80
2015,11,14,21,26,6.80
2015,11,14,21,27,6.70
2015,11,14,21,28,6.70
2015,11,14,21,29,6.70
2015,11,14,21,30,6.70
2015,11,14,21,31,6.70
2015,11,14,21,32,6.70
2015,11,14,21,33,6.70
2015,11,14,21,34,6.70
2015,11,14,21,35,6.70
2015,11,14,21,36,6.70
2015,11,14,21,37,6.60
2015,11,14,21,38,6.60
2015,11,14,21,39,6.60
2015,11,14,21,40,6.60
2015,11,14,21,41,6.60
2015,11,14,21,42,6.60
2015,11,14,21,43,6.60
2015,11,14,21,44,6.60
2015,11,14,21,45,6.60
2015,11,14,21,46,6.60
2015,11,14,21,47,6.60
2015,11,14,21,48,6.60
2015,11,14,21,49,6.60
2015,11,14,21,50,6.60
2015,11,14,21,51,6.60
2015,11,14,21,52,6.50
2015,11,14,21,53,6.50
2015,11,14,21,54,6.50
2015,11,14,21,55,6.50
2015,11,14,21,56,6.50
2015,11,14,21,57,6.50
2015,11,14,21,58,6.50
2015,11,14,21,59,6.50
2015,11,14,22,00,6.50
2015,11,14,22,01,6.50
2015,11,14,22,02,6.50
2015,11,14,22,03,6.40
2015,11,14,22,04,6.50
2015,11,14,22,05,6.50
2015,11,14,22,06,6.50
2015,11,14,22,07,6.50
2015,11,14,22,08,6.50
2015,11,14,22,09,6.50
2015,11,14,22,10,6.50
2015,11,14,22,11,6.40
2015,11,14,22,12,6.40
2015,11,14,22,13,6.40
2015,11,14,22,14,6.50
2015,11,14,22,15,6.50
2015,11,14,22,16,6.40
2015,11,14,22,17,6.50
2015,11,14,22,18,6.50
2015,11,14,22,19,6.40
2015,11,14,22,20,6.40
2015,11,14,22,21,6.50
2015,11,14,22,22,6.40
2015,11,14,22,23,6.40
2015,11,14,22,24,6.40
2015,11,14,22,25,6.40
2015,11,14,22,26,6.40
2015,11,14,22,27,6.40
2015,11,14,22,28,6.40
2015,11,14,22,29,6.40
2015,11,14,22,30,6.40
2015,11,14,22,31,6.40
2015,11,14,22,32,6.40
2015,11,14,22,33,6.40
2015,11,14,22,34,6.40
2015,11,14,22,35,6.40
2015,11,14,22,36,6.40
2015,11,14,22,37,6.40
2015,11,14,22,38,6.30
2015,11,14,22,39,6.30
2015,11,14,22,40,6.30
2015,11,14,22,41,6.30
2015,11,14,22,42,6.30
2015,11,14,22,43,6.30
2015,11,14,22,44,6.40
2015,11,14,22,45,6.30
2015,11,14,22,46,6.30
2015,11,14,22,47,6.30
2015,11,14,22,48,6.30
2015,11,14,22,49,6.30
2015,11,14,22,50,6.30
2015,11,14,22,51,6.30
2015,11,14,22,52,6.30
2015,11,14,22,53,6.30
2015,11,14,22,54,6.30
2015,11,14,22,55,6.30
2015,11,14,22,56,6.30
2015,11,14,22,57,6.30
2015,11,14,22,58,6.20
2015,11,14,22,59,6.20
2015,11,14,23,00,6.20
2015,11,14,23,01,6.20
2015,11,14,23,02,6.20
2015,11,14,23,03,6.20
2015,11,14,23,04,6.20
2015,11,14,23,05,6.20
2015,11,14,23,06,6.20
2015,11,14,23,07,6.20
2015,11,14,23,08,6.10
2015,11,14,23,09,6.10
2015,11,14,23,10,6.10
2015,11,14,23,11,6.10
2015,11,14,23,12,6.10
2015,11,14,23,13,6.10
2015,11,14,23,14,6.10
2015,11,14,23,15,6.10
2015,11,14,23,16,6.10
2015,11,14,23,17,6.10
2015,11,14,23,18,6.10
2015,11,14,23,19,6.10
2015,11,14,23,20,6.10
2015,11,14,23,21,6.10
2015,11,14,23,22,6.10
2015,11,14,23,23,6.10
2015,11,14,23,24,6.10
2015,11,14,23,25,6.10
2015,11,14,23,26,6.10
2015,11,14,23,27,6.10